Location: Luxembourg
(49.6117°N, 6.1300°E)
Time: 05:38:18
(UTC+01:00)

N. Korean satellite - Pass Details

Date: 31 January 2019
Orbit: 456 x 510 km, 97.2° (Epoch: 21 February)

Event Time Altitude Azimuth Distance (km) Brightness Sun altitude
Rises 07:33:56 0° 5° (N) 2,603 10.1 -6.2°
Reaches altitude 10° 07:36:09 10° 357° (N) 1,706 9.1 -5.8°
Maximum altitude 07:39:31 35° 290° (WNW) 807 7.2 -5.3°
Drops below altitude 10° 07:42:48 10° 224° (SW) 1,664 9.1 -4.8°
Sets 07:44:56 0° 215° (SW) 2,529 10.1 -4.5°
